Year,Month,Day,Hour,Minute,Value (Times are PST for temperature in C)
2017,10,27,00,00,7.00
2017,10,27,00,01,7.00
2017,10,27,00,02,7.00
2017,10,27,00,03,7.00
2017,10,27,00,04,7.00
2017,10,27,00,05,7.00
2017,10,27,00,06,7.00
2017,10,27,00,07,7.00
2017,10,27,00,08,7.00
2017,10,27,00,09,7.10
2017,10,27,00,10,7.10
2017,10,27,00,11,7.10
2017,10,27,00,12,7.10
2017,10,27,00,13,7.10
2017,10,27,00,14,7.10
2017,10,27,00,15,7.10
2017,10,27,00,16,7.10
2017,10,27,00,17,7.00
2017,10,27,00,18,7.00
2017,10,27,00,19,7.00
2017,10,27,00,20,7.00
2017,10,27,00,21,7.00
2017,10,27,00,22,7.10
2017,10,27,00,23,7.10
2017,10,27,00,24,7.10
2017,10,27,00,25,7.10
2017,10,27,00,26,7.20
2017,10,27,00,27,7.20
2017,10,27,00,28,7.20
2017,10,27,00,29,7.20
2017,10,27,00,30,7.20
2017,10,27,00,31,7.20
2017,10,27,00,32,7.20
2017,10,27,00,33,7.20
2017,10,27,00,34,7.20
2017,10,27,00,35,7.20
2017,10,27,00,36,7.20
2017,10,27,00,37,7.20
2017,10,27,00,38,7.20
2017,10,27,00,39,7.20
2017,10,27,00,40,7.20
2017,10,27,00,41,7.20
2017,10,27,00,42,7.20
2017,10,27,00,43,7.20
2017,10,27,00,44,7.10
2017,10,27,00,45,7.10
2017,10,27,00,46,7.10
2017,10,27,00,47,7.10
2017,10,27,00,48,7.10
2017,10,27,00,49,7.10
2017,10,27,00,50,7.10
2017,10,27,00,51,7.10
2017,10,27,00,52,7.10
2017,10,27,00,53,7.10
2017,10,27,00,54,7.00
2017,10,27,00,55,6.90
2017,10,27,00,56,6.90
2017,10,27,00,57,6.90
2017,10,27,00,58,6.80
2017,10,27,00,59,6.80
2017,10,27,01,00,6.80
2017,10,27,01,01,6.80
2017,10,27,01,02,6.70
2017,10,27,01,03,6.70
2017,10,27,01,04,6.70
2017,10,27,01,05,6.70
2017,10,27,01,06,6.70
2017,10,27,01,07,6.60
2017,10,27,01,08,6.60
2017,10,27,01,09,6.60
2017,10,27,01,10,6.50
2017,10,27,01,11,6.50
2017,10,27,01,12,6.50
2017,10,27,01,13,6.50
2017,10,27,01,14,6.50
2017,10,27,01,15,6.40
2017,10,27,01,16,6.40
2017,10,27,01,17,6.40
2017,10,27,01,18,6.40
2017,10,27,01,19,6.40
2017,10,27,01,20,6.50
2017,10,27,01,21,6.40
2017,10,27,01,22,6.40
2017,10,27,01,23,6.40
2017,10,27,01,24,6.50
2017,10,27,01,25,6.40
2017,10,27,01,26,6.50
2017,10,27,01,27,6.50
2017,10,27,01,28,6.50
2017,10,27,01,29,6.50
2017,10,27,01,30,6.50
2017,10,27,01,31,6.50
2017,10,27,01,32,6.50
2017,10,27,01,33,6.50
2017,10,27,01,34,6.40
2017,10,27,01,35,6.40
2017,10,27,01,36,6.40
2017,10,27,01,37,6.40
2017,10,27,01,38,6.40
2017,10,27,01,39,6.40
2017,10,27,01,40,6.40
2017,10,27,01,41,6.40
2017,10,27,01,42,6.40
2017,10,27,01,43,6.40
2017,10,27,01,44,6.40
2017,10,27,01,45,6.40
2017,10,27,01,46,6.50
2017,10,27,01,47,6.50
2017,10,27,01,48,6.50
2017,10,27,01,49,6.50
2017,10,27,01,50,6.60
2017,10,27,01,51,6.60
2017,10,27,01,52,6.60
2017,10,27,01,53,6.60
2017,10,27,01,54,6.60
2017,10,27,01,55,6.60
2017,10,27,01,56,6.60
2017,10,27,01,57,6.60
2017,10,27,01,58,6.60
2017,10,27,01,59,6.60
2017,10,27,02,00,6.50
2017,10,27,02,01,6.50
2017,10,27,02,02,6.50
2017,10,27,02,03,6.40
2017,10,27,02,04,6.30
2017,10,27,02,05,6.30
2017,10,27,02,06,6.20
2017,10,27,02,07,6.20
2017,10,27,02,08,6.20
2017,10,27,02,09,6.10
2017,10,27,02,10,6.10
2017,10,27,02,11,6.10
2017,10,27,02,12,6.00
2017,10,27,02,13,6.00
2017,10,27,02,14,5.90
2017,10,27,02,15,5.90
2017,10,27,02,16,5.90
2017,10,27,02,17,5.90
2017,10,27,02,18,5.90
2017,10,27,02,19,6.00
2017,10,27,02,20,6.00
2017,10,27,02,21,6.00
2017,10,27,02,22,6.10
2017,10,27,02,23,6.10
2017,10,27,02,24,6.10
2017,10,27,02,25,6.10
2017,10,27,02,26,6.10
2017,10,27,02,27,6.10
2017,10,27,02,28,6.10
2017,10,27,02,29,6.10
2017,10,27,02,30,6.10
2017,10,27,02,31,6.10
2017,10,27,02,32,6.10
2017,10,27,02,33,6.10
2017,10,27,02,34,6.10
2017,10,27,02,35,6.10
2017,10,27,02,36,6.10
2017,10,27,02,37,6.20
2017,10,27,02,38,6.20
2017,10,27,02,39,6.20
2017,10,27,02,40,6.20
2017,10,27,02,41,6.20
2017,10,27,02,42,6.20
2017,10,27,02,43,6.20
2017,10,27,02,44,6.20
2017,10,27,02,45,6.20
2017,10,27,02,46,6.20
2017,10,27,02,47,6.20
2017,10,27,02,48,6.10
2017,10,27,02,49,6.10
2017,10,27,02,50,6.10
2017,10,27,02,51,6.00
2017,10,27,02,52,6.00
2017,10,27,02,53,6.00
2017,10,27,02,54,5.90
2017,10,27,02,55,6.00
2017,10,27,02,56,6.00
2017,10,27,02,57,6.00
2017,10,27,02,58,6.00
2017,10,27,02,59,6.00
2017,10,27,03,00,6.00
2017,10,27,03,01,6.00
2017,10,27,03,02,6.00
2017,10,27,03,03,6.00
2017,10,27,03,04,6.00
2017,10,27,03,05,6.00
2017,10,27,03,06,6.10
2017,10,27,03,07,6.10
2017,10,27,03,08,6.10
2017,10,27,03,09,6.10
2017,10,27,03,10,6.10
2017,10,27,03,11,6.20
2017,10,27,03,12,6.20
2017,10,27,03,13,6.20
2017,10,27,03,14,6.20
2017,10,27,03,15,6.10
2017,10,27,03,16,6.10
2017,10,27,03,17,6.10
2017,10,27,03,18,6.00
2017,10,27,03,19,6.00
2017,10,27,03,20,6.00
2017,10,27,03,21,6.00
2017,10,27,03,22,5.90
2017,10,27,03,23,5.90
2017,10,27,03,24,5.90
2017,10,27,03,25,5.90
2017,10,27,03,26,5.80
2017,10,27,03,27,5.80
2017,10,27,03,28,5.80
2017,10,27,03,29,5.70
2017,10,27,03,30,5.70
2017,10,27,03,31,5.80
2017,10,27,03,32,5.80
2017,10,27,03,33,5.80
2017,10,27,03,34,5.80
2017,10,27,03,35,5.80
2017,10,27,03,36,5.80
2017,10,27,03,37,5.80
2017,10,27,03,38,5.90
2017,10,27,03,39,5.90
2017,10,27,03,40,6.00
2017,10,27,03,41,6.00
2017,10,27,03,42,6.10
2017,10,27,03,43,6.10
2017,10,27,03,44,6.00
2017,10,27,03,45,6.00
2017,10,27,03,46,5.90
2017,10,27,03,47,5.90
2017,10,27,03,48,5.80
2017,10,27,03,49,5.90
2017,10,27,03,50,5.90
2017,10,27,03,51,6.00
2017,10,27,03,52,6.10
2017,10,27,03,53,6.20
2017,10,27,03,54,6.40
2017,10,27,03,55,6.40
2017,10,27,03,56,6.50
2017,10,27,03,57,6.60
2017,10,27,03,58,6.70
2017,10,27,03,59,6.70
2017,10,27,04,00,6.70
2017,10,27,04,01,6.80
2017,10,27,04,02,6.80
2017,10,27,04,03,6.80
2017,10,27,04,04,6.80
2017,10,27,04,05,6.70
2017,10,27,04,06,6.70
2017,10,27,04,07,6.60
2017,10,27,04,08,6.60
2017,10,27,04,09,6.60
2017,10,27,04,10,6.60
2017,10,27,04,11,6.60
2017,10,27,04,12,6.60
2017,10,27,04,13,6.50
2017,10,27,04,14,6.50
2017,10,27,04,15,6.50
2017,10,27,04,16,6.50
2017,10,27,04,17,6.50
2017,10,27,04,18,6.50
2017,10,27,04,19,6.60
2017,10,27,04,20,6.50
2017,10,27,04,21,6.50
2017,10,27,04,22,6.40
2017,10,27,04,23,6.30
2017,10,27,04,24,6.30
2017,10,27,04,25,6.20
2017,10,27,04,26,6.20
2017,10,27,04,27,6.20
2017,10,27,04,28,6.10
2017,10,27,04,29,6.10
2017,10,27,04,30,6.20
2017,10,27,04,31,6.20
2017,10,27,04,32,6.20
2017,10,27,04,33,6.20
2017,10,27,04,34,6.20
2017,10,27,04,35,6.30
2017,10,27,04,36,6.30
2017,10,27,04,37,6.30
2017,10,27,04,38,6.30
2017,10,27,04,39,6.30
2017,10,27,04,40,6.30
2017,10,27,04,41,6.30
2017,10,27,04,42,6.30
2017,10,27,04,43,6.30
2017,10,27,04,44,6.30
2017,10,27,04,45,6.30
2017,10,27,04,46,6.20
2017,10,27,04,47,6.20
2017,10,27,04,48,6.10
2017,10,27,04,49,6.10
2017,10,27,04,50,6.10
2017,10,27,04,51,6.10
2017,10,27,04,52,6.00
2017,10,27,04,53,6.00
2017,10,27,04,54,6.00
2017,10,27,04,55,5.90
2017,10,27,04,56,5.90
2017,10,27,04,57,5.90
2017,10,27,04,58,5.90
2017,10,27,04,59,5.80
2017,10,27,05,00,5.80
2017,10,27,05,01,5.80
2017,10,27,05,02,5.80
2017,10,27,05,03,5.80
2017,10,27,05,04,5.80
2017,10,27,05,05,5.80
2017,10,27,05,06,5.80
2017,10,27,05,07,5.80
2017,10,27,05,08,5.80
2017,10,27,05,09,5.80
2017,10,27,05,10,5.80
2017,10,27,05,11,5.80
2017,10,27,05,12,5.80
2017,10,27,05,13,5.80
2017,10,27,05,14,5.80
2017,10,27,05,15,5.80
2017,10,27,05,16,5.80
2017,10,27,05,17,5.80
2017,10,27,05,18,5.80
2017,10,27,05,19,5.80
2017,10,27,05,20,5.80
2017,10,27,05,21,5.80
2017,10,27,05,22,5.70
2017,10,27,05,23,5.70
2017,10,27,05,24,5.70
2017,10,27,05,25,5.70
2017,10,27,05,26,5.70
2017,10,27,05,27,5.70
2017,10,27,05,28,5.60
2017,10,27,05,29,5.60
2017,10,27,05,30,5.60
2017,10,27,05,31,5.60
2017,10,27,05,32,5.60
2017,10,27,05,33,5.50
2017,10,27,05,34,5.50
2017,10,27,05,35,5.50
2017,10,27,05,36,5.50
2017,10,27,05,37,5.50
2017,10,27,05,38,5.50
2017,10,27,05,39,5.50
2017,10,27,05,40,5.50
2017,10,27,05,41,5.50
2017,10,27,05,42,5.50
2017,10,27,05,43,5.50
2017,10,27,05,44,5.50
2017,10,27,05,45,5.40
2017,10,27,05,46,5.40
2017,10,27,05,47,5.40
2017,10,27,05,48,5.40
2017,10,27,05,49,5.30
2017,10,27,05,50,5.30
2017,10,27,05,51,5.30
2017,10,27,05,52,5.30
2017,10,27,05,53,5.30
2017,10,27,05,54,5.30
2017,10,27,05,55,5.30
2017,10,27,05,56,5.30
2017,10,27,05,57,5.30
2017,10,27,05,58,5.30
2017,10,27,05,59,5.30
2017,10,27,06,00,5.40
2017,10,27,06,01,5.40
2017,10,27,06,02,5.40
2017,10,27,06,03,5.40
2017,10,27,06,04,5.40
2017,10,27,06,05,5.40
2017,10,27,06,06,5.40
2017,10,27,06,07,5.40
2017,10,27,06,08,5.40
2017,10,27,06,09,5.40
2017,10,27,06,10,5.40
2017,10,27,06,11,5.40
2017,10,27,06,12,5.40
2017,10,27,06,13,5.40
2017,10,27,06,14,5.40
2017,10,27,06,15,5.40
2017,10,27,06,16,5.30
2017,10,27,06,17,5.30
2017,10,27,06,18,5.40
2017,10,27,06,19,5.40
2017,10,27,06,20,5.40
2017,10,27,06,21,5.40
2017,10,27,06,22,5.40
2017,10,27,06,23,5.40
2017,10,27,06,24,5.40
2017,10,27,06,25,5.40
2017,10,27,06,26,5.40
2017,10,27,06,27,5.40
2017,10,27,06,28,5.30
2017,10,27,06,29,5.30
2017,10,27,06,30,5.30
2017,10,27,06,31,5.30
2017,10,27,06,32,5.30
2017,10,27,06,33,5.30
2017,10,27,06,34,5.20
2017,10,27,06,35,5.20
2017,10,27,06,36,5.20
2017,10,27,06,37,5.20
2017,10,27,06,38,5.20
2017,10,27,06,39,5.20
2017,10,27,06,40,5.20
2017,10,27,06,41,5.20
2017,10,27,06,42,5.20
2017,10,27,06,43,5.20
2017,10,27,06,44,5.20
2017,10,27,06,45,5.20
2017,10,27,06,46,5.20
2017,10,27,06,47,5.20
2017,10,27,06,48,5.20
2017,10,27,06,49,5.30
2017,10,27,06,50,5.30
2017,10,27,06,51,5.30
2017,10,27,06,52,5.30
2017,10,27,06,53,5.30
2017,10,27,06,54,5.30
2017,10,27,06,55,5.30
2017,10,27,06,56,5.40
2017,10,27,06,57,5.40
2017,10,27,06,58,5.40
2017,10,27,06,59,5.40
2017,10,27,07,00,5.40
2017,10,27,07,01,5.40
2017,10,27,07,02,5.40
2017,10,27,07,03,5.40
2017,10,27,07,04,5.40
2017,10,27,07,05,5.40
2017,10,27,07,06,5.40
2017,10,27,07,07,5.50
2017,10,27,07,08,5.50
2017,10,27,07,09,5.50
2017,10,27,07,10,5.50
2017,10,27,07,11,5.50
2017,10,27,07,12,5.50
2017,10,27,07,13,5.50
2017,10,27,07,14,5.50
2017,10,27,07,15,5.50
2017,10,27,07,16,5.50
2017,10,27,07,17,5.50
2017,10,27,07,18,5.50
2017,10,27,07,19,5.50
2017,10,27,07,20,5.50
2017,10,27,07,21,5.40
2017,10,27,07,22,5.40
2017,10,27,07,23,5.40
2017,10,27,07,24,5.30
2017,10,27,07,25,5.30
2017,10,27,07,26,5.30
2017,10,27,07,27,5.30
2017,10,27,07,28,5.30
2017,10,27,07,29,5.30
2017,10,27,07,30,5.20
2017,10,27,07,31,5.20
2017,10,27,07,32,5.20
2017,10,27,07,33,5.10
2017,10,27,07,34,5.10
2017,10,27,07,35,5.10
2017,10,27,07,36,5.10
2017,10,27,07,37,5.10
2017,10,27,07,38,5.10
2017,10,27,07,39,5.10
2017,10,27,07,40,5.10
2017,10,27,07,41,5.10
2017,10,27,07,42,5.10
2017,10,27,07,43,5.10
2017,10,27,07,44,5.10
2017,10,27,07,45,5.10
2017,10,27,07,46,5.20
2017,10,27,07,47,5.20
2017,10,27,07,48,5.20
2017,10,27,07,49,5.20
2017,10,27,07,50,5.20
2017,10,27,07,51,5.20
2017,10,27,07,52,5.20
2017,10,27,07,53,5.20
2017,10,27,07,54,5.20
2017,10,27,07,55,5.20
2017,10,27,07,56,5.20
2017,10,27,07,57,5.20
2017,10,27,07,58,5.20
2017,10,27,07,59,5.20
2017,10,27,08,00,5.20
2017,10,27,08,01,5.20
2017,10,27,08,02,5.20
2017,10,27,08,03,5.20
2017,10,27,08,04,5.10
2017,10,27,08,05,5.10
2017,10,27,08,06,5.10
2017,10,27,08,07,5.00
2017,10,27,08,08,5.00
2017,10,27,08,09,5.00
2017,10,27,08,10,5.00
2017,10,27,08,11,5.00
2017,10,27,08,12,5.10
2017,10,27,08,13,5.10
2017,10,27,08,14,5.10
2017,10,27,08,15,5.10
2017,10,27,08,16,5.20
2017,10,27,08,17,5.20
2017,10,27,08,18,5.20
2017,10,27,08,19,5.20
2017,10,27,08,20,5.20
2017,10,27,08,21,5.20
2017,10,27,08,22,5.20
2017,10,27,08,23,5.30
2017,10,27,08,24,5.30
2017,10,27,08,25,5.30
2017,10,27,08,26,5.30
2017,10,27,08,27,5.30
2017,10,27,08,28,5.30
2017,10,27,08,29,5.30
2017,10,27,08,30,5.30
2017,10,27,08,31,5.30
2017,10,27,08,32,5.30
2017,10,27,08,33,5.30
2017,10,27,08,34,5.30
2017,10,27,08,35,5.30
2017,10,27,08,36,5.30
2017,10,27,08,37,5.30
2017,10,27,08,38,5.30
2017,10,27,08,39,5.30
2017,10,27,08,40,5.30
2017,10,27,08,41,5.30
2017,10,27,08,42,5.30
2017,10,27,08,43,5.40
2017,10,27,08,44,5.40
2017,10,27,08,45,5.40
2017,10,27,08,46,5.40
2017,10,27,08,47,5.50
2017,10,27,08,48,5.50
2017,10,27,08,49,5.50
2017,10,27,08,50,5.60
2017,10,27,08,51,5.60
2017,10,27,08,52,5.70
2017,10,27,08,53,5.80
2017,10,27,08,54,5.80
2017,10,27,08,55,5.90
2017,10,27,08,56,5.90
2017,10,27,08,57,5.90
2017,10,27,08,58,5.90
2017,10,27,08,59,5.90
2017,10,27,09,00,6.00
2017,10,27,09,01,6.00
2017,10,27,09,02,6.10
2017,10,27,09,03,6.10
2017,10,27,09,04,6.10
2017,10,27,09,05,6.10
2017,10,27,09,06,6.10
2017,10,27,09,07,6.10
2017,10,27,09,08,6.10
2017,10,27,09,09,6.10
2017,10,27,09,10,6.10
2017,10,27,09,11,6.20
2017,10,27,09,12,6.20
2017,10,27,09,13,6.20
2017,10,27,09,14,6.20
2017,10,27,09,15,6.20
2017,10,27,09,16,6.20
2017,10,27,09,17,6.20
2017,10,27,09,18,6.10
2017,10,27,09,19,6.10
2017,10,27,09,20,6.10
2017,10,27,09,21,6.10
2017,10,27,09,22,6.10
2017,10,27,09,23,6.10
2017,10,27,09,24,6.10
2017,10,27,09,25,6.20
2017,10,27,09,26,6.20
2017,10,27,09,27,6.20
2017,10,27,09,28,6.20
2017,10,27,09,29,6.20
2017,10,27,09,30,6.20
2017,10,27,09,31,6.30
2017,10,27,09,32,6.30
2017,10,27,09,33,6.30
2017,10,27,09,34,6.30
2017,10,27,09,35,6.30
2017,10,27,09,36,6.40
2017,10,27,09,37,6.40
2017,10,27,09,38,6.40
2017,10,27,09,39,6.40
2017,10,27,09,40,6.40
2017,10,27,09,41,6.40
2017,10,27,09,42,6.50
2017,10,27,09,43,6.50
2017,10,27,09,44,6.50
2017,10,27,09,45,6.50
2017,10,27,09,46,6.60
2017,10,27,09,47,6.60
2017,10,27,09,48,6.60
2017,10,27,09,49,6.70
2017,10,27,09,50,6.70
2017,10,27,09,51,6.70
2017,10,27,09,52,6.80
2017,10,27,09,53,6.80
2017,10,27,09,54,6.90
2017,10,27,09,55,6.90
2017,10,27,09,56,7.00
2017,10,27,09,57,7.10
2017,10,27,09,58,7.10
2017,10,27,09,59,7.20
2017,10,27,10,00,7.20
2017,10,27,10,01,7.20
2017,10,27,10,02,7.20
2017,10,27,10,03,7.30
2017,10,27,10,04,7.30
2017,10,27,10,05,7.40
2017,10,27,10,06,7.40
2017,10,27,10,07,7.50
2017,10,27,10,08,7.50
2017,10,27,10,09,7.50
2017,10,27,10,10,7.50
2017,10,27,10,11,7.50
2017,10,27,10,12,7.50
2017,10,27,10,13,7.60
2017,10,27,10,14,7.60
2017,10,27,10,15,7.60
2017,10,27,10,16,7.60
2017,10,27,10,17,7.70
2017,10,27,10,18,7.70
2017,10,27,10,19,7.80
2017,10,27,10,20,7.80
2017,10,27,10,21,7.90
2017,10,27,10,22,7.90
2017,10,27,10,23,7.90
2017,10,27,10,24,7.90
2017,10,27,10,25,8.00
2017,10,27,10,26,8.00
2017,10,27,10,27,8.00
2017,10,27,10,28,8.00
2017,10,27,10,29,8.10
2017,10,27,10,30,8.10
2017,10,27,10,31,8.10
2017,10,27,10,32,8.10
2017,10,27,10,33,8.10
2017,10,27,10,34,8.20
2017,10,27,10,35,8.20
2017,10,27,10,36,8.20
2017,10,27,10,37,8.30
2017,10,27,10,38,8.40
2017,10,27,10,39,8.50
2017,10,27,10,40,8.60
2017,10,27,10,41,8.60
2017,10,27,10,42,8.70
2017,10,27,10,43,8.80
2017,10,27,10,44,8.80
2017,10,27,10,45,8.90
2017,10,27,10,46,9.00
2017,10,27,10,47,9.20
2017,10,27,10,48,9.30
2017,10,27,10,49,9.40
2017,10,27,10,50,9.60
2017,10,27,10,51,9.70
2017,10,27,10,52,9.70
2017,10,27,10,53,9.80
2017,10,27,10,54,9.80
2017,10,27,10,55,9.80
2017,10,27,10,56,9.80
2017,10,27,10,57,9.80
2017,10,27,10,58,9.80
2017,10,27,10,59,9.80
2017,10,27,11,00,9.80
2017,10,27,11,01,9.80
2017,10,27,11,02,9.80
2017,10,27,11,03,9.70
2017,10,27,11,04,9.70
2017,10,27,11,05,9.60
2017,10,27,11,06,9.60
2017,10,27,11,07,9.60
2017,10,27,11,08,9.60
2017,10,27,11,09,9.60
2017,10,27,11,10,9.60
2017,10,27,11,11,9.60
2017,10,27,11,12,9.60
2017,10,27,11,13,9.70
2017,10,27,11,14,9.70
2017,10,27,11,15,9.80
2017,10,27,11,16,9.80
2017,10,27,11,17,9.90
2017,10,27,11,18,10.00
2017,10,27,11,19,10.10
2017,10,27,11,20,10.10
2017,10,27,11,21,10.20
2017,10,27,11,22,10.30
2017,10,27,11,23,10.30
2017,10,27,11,24,10.30
2017,10,27,11,25,10.40
2017,10,27,11,26,10.40
2017,10,27,11,27,10.50
2017,10,27,11,28,10.70
2017,10,27,11,29,10.90
2017,10,27,11,30,11.10
2017,10,27,11,31,11.20
2017,10,27,11,32,11.30
2017,10,27,11,33,11.50
2017,10,27,11,34,11.60
2017,10,27,11,35,11.70
2017,10,27,11,36,11.80
2017,10,27,11,37,11.90
2017,10,27,11,38,12.00
2017,10,27,11,39,12.10
2017,10,27,11,40,12.20
2017,10,27,11,41,12.30
2017,10,27,11,42,12.40
2017,10,27,11,43,12.40
2017,10,27,11,44,12.40
2017,10,27,11,45,12.40
2017,10,27,11,46,12.40
2017,10,27,11,47,12.40
2017,10,27,11,48,12.40
2017,10,27,11,49,12.30
2017,10,27,11,50,12.30
2017,10,27,11,51,12.20
2017,10,27,11,52,12.20
2017,10,27,11,53,12.10
2017,10,27,11,54,12.00
2017,10,27,11,55,11.90
2017,10,27,11,56,11.90
2017,10,27,11,57,11.80
2017,10,27,11,58,11.80
2017,10,27,11,59,11.70
2017,10,27,12,00,11.70
2017,10,27,12,01,11.60
2017,10,27,12,02,11.60
2017,10,27,12,03,11.50
2017,10,27,12,04,11.50
2017,10,27,12,05,11.50
2017,10,27,12,06,11.50
2017,10,27,12,07,11.40
2017,10,27,12,08,11.40
2017,10,27,12,09,11.40
2017,10,27,12,10,11.40
2017,10,27,12,11,11.40
2017,10,27,12,12,11.40
2017,10,27,12,13,11.40
2017,10,27,12,14,11.40
2017,10,27,12,15,11.40
2017,10,27,12,16,11.40
2017,10,27,12,17,11.40
2017,10,27,12,18,11.30
2017,10,27,12,19,11.40
2017,10,27,12,20,11.40
2017,10,27,12,21,11.40
2017,10,27,12,22,11.40
2017,10,27,12,23,11.50
2017,10,27,12,24,11.60
2017,10,27,12,25,11.60
2017,10,27,12,26,11.60
2017,10,27,12,27,11.70
2017,10,27,12,28,11.70
2017,10,27,12,29,11.70
2017,10,27,12,30,11.80
2017,10,27,12,31,11.80
2017,10,27,12,32,11.90
2017,10,27,12,33,11.90
2017,10,27,12,34,12.00
2017,10,27,12,35,12.00
2017,10,27,12,36,12.10
2017,10,27,12,37,12.10
2017,10,27,12,38,12.20
2017,10,27,12,39,12.30
2017,10,27,12,40,12.30
2017,10,27,12,41,12.40
2017,10,27,12,42,12.50
2017,10,27,12,43,12.50
2017,10,27,12,44,12.60
2017,10,27,12,45,12.70
2017,10,27,12,46,12.80
2017,10,27,12,47,12.90
2017,10,27,12,48,13.00
2017,10,27,12,49,13.10
2017,10,27,12,50,13.20
2017,10,27,12,51,13.20
2017,10,27,12,52,13.30
2017,10,27,12,53,13.40
2017,10,27,12,54,13.50
2017,10,27,12,55,13.50
2017,10,27,12,56,13.60
2017,10,27,12,57,13.70
2017,10,27,12,58,13.70
2017,10,27,12,59,13.80
2017,10,27,13,00,13.80
2017,10,27,13,01,13.80
2017,10,27,13,02,13.90
2017,10,27,13,03,13.90
2017,10,27,13,04,13.90
2017,10,27,13,05,14.00
2017,10,27,13,06,14.00
2017,10,27,13,07,14.10
2017,10,27,13,08,14.10
2017,10,27,13,09,14.10
2017,10,27,13,10,14.10
2017,10,27,13,11,14.10
2017,10,27,13,12,14.20
2017,10,27,13,13,14.20
2017,10,27,13,14,14.20
2017,10,27,13,15,14.20
2017,10,27,13,16,14.10
2017,10,27,13,17,14.10
2017,10,27,13,18,14.00
2017,10,27,13,19,14.00
2017,10,27,13,20,14.00
2017,10,27,13,21,13.90
2017,10,27,13,22,13.90
2017,10,27,13,23,13.90
2017,10,27,13,24,13.80
2017,10,27,13,25,13.80
2017,10,27,13,26,13.80
2017,10,27,13,27,13.70
2017,10,27,13,28,13.70
2017,10,27,13,29,13.70
2017,10,27,13,30,13.70
2017,10,27,13,31,13.80
2017,10,27,13,32,13.80
2017,10,27,13,33,13.80
2017,10,27,13,34,13.80
2017,10,27,13,35,13.90
2017,10,27,13,36,13.90
2017,10,27,13,37,14.00
2017,10,27,13,38,14.10
2017,10,27,13,39,14.20
2017,10,27,13,40,14.30
2017,10,27,13,41,14.40
2017,10,27,13,42,14.50
2017,10,27,13,43,14.50
2017,10,27,13,44,14.60
2017,10,27,13,45,14.70
2017,10,27,13,46,14.70
2017,10,27,13,47,14.70
2017,10,27,13,48,14.70
2017,10,27,13,49,14.70
2017,10,27,13,50,14.70
2017,10,27,13,51,14.70
2017,10,27,13,52,14.60
2017,10,27,13,53,14.60
2017,10,27,13,54,14.60
2017,10,27,13,55,14.70
2017,10,27,13,56,14.70
2017,10,27,13,57,14.70
2017,10,27,13,58,14.70
2017,10,27,13,59,14.80
2017,10,27,14,00,14.80
2017,10,27,14,01,14.80
2017,10,27,14,02,14.80
2017,10,27,14,03,14.80
2017,10,27,14,04,14.80
2017,10,27,14,05,14.90
2017,10,27,14,06,14.90
2017,10,27,14,07,14.90
2017,10,27,14,08,15.00
2017,10,27,14,09,15.00
2017,10,27,14,10,15.00
2017,10,27,14,11,15.00
2017,10,27,14,12,15.00
2017,10,27,14,13,15.00
2017,10,27,14,14,15.00
2017,10,27,14,15,15.00
2017,10,27,14,16,15.00
2017,10,27,14,17,15.10
2017,10,27,14,18,15.10
2017,10,27,14,19,15.10
2017,10,27,14,20,15.00
2017,10,27,14,21,15.00
2017,10,27,14,22,14.90
2017,10,27,14,23,14.90
2017,10,27,14,24,14.90
2017,10,27,14,25,14.90
2017,10,27,14,26,14.90
2017,10,27,14,27,14.90
2017,10,27,14,28,14.80
2017,10,27,14,29,14.80
2017,10,27,14,30,14.80
2017,10,27,14,31,14.90
2017,10,27,14,32,14.90
2017,10,27,14,33,15.00
2017,10,27,14,34,15.10
2017,10,27,14,35,15.20
2017,10,27,14,36,15.20
2017,10,27,14,37,15.30
2017,10,27,14,38,15.30
2017,10,27,14,39,15.30
2017,10,27,14,40,15.30
2017,10,27,14,41,15.30
2017,10,27,14,42,15.30
2017,10,27,14,43,15.30
2017,10,27,14,44,15.30
2017,10,27,14,45,15.30
2017,10,27,14,46,15.30
2017,10,27,14,47,15.40
2017,10,27,14,48,15.40
2017,10,27,14,49,15.50
2017,10,27,14,50,15.60
2017,10,27,14,51,15.60
2017,10,27,14,52,15.60
2017,10,27,14,53,15.60
2017,10,27,14,54,15.60
2017,10,27,14,55,15.60
2017,10,27,14,56,15.60
2017,10,27,14,57,15.70
2017,10,27,14,58,15.70
2017,10,27,14,59,15.80
2017,10,27,15,00,15.80
2017,10,27,15,01,15.80
2017,10,27,15,02,15.80
2017,10,27,15,03,15.90
2017,10,27,15,04,15.90
2017,10,27,15,05,15.90
2017,10,27,15,06,15.90
2017,10,27,15,07,15.80
2017,10,27,15,08,15.80
2017,10,27,15,09,15.80
2017,10,27,15,10,15.80
2017,10,27,15,11,15.80
2017,10,27,15,12,15.80
2017,10,27,15,13,15.70
2017,10,27,15,14,15.70
2017,10,27,15,15,15.70
2017,10,27,15,16,15.70
2017,10,27,15,17,15.70
2017,10,27,15,18,15.70
2017,10,27,15,19,15.80
2017,10,27,15,20,15.80
2017,10,27,15,21,15.80
2017,10,27,15,22,15.70
2017,10,27,15,23,15.70
2017,10,27,15,24,15.70
2017,10,27,15,25,15.70
2017,10,27,15,26,15.70
2017,10,27,15,27,15.70
2017,10,27,15,28,15.80
2017,10,27,15,29,15.80
2017,10,27,15,30,15.80
2017,10,27,15,31,15.80
2017,10,27,15,32,15.70
2017,10,27,15,33,15.70
2017,10,27,15,34,15.70
2017,10,27,15,35,15.80
2017,10,27,15,36,15.80
2017,10,27,15,37,15.80
2017,10,27,15,38,15.80
2017,10,27,15,39,15.90
2017,10,27,15,40,15.90
2017,10,27,15,41,15.90
2017,10,27,15,42,16.00
2017,10,27,15,43,16.00
2017,10,27,15,44,16.10
2017,10,27,15,45,16.10
2017,10,27,15,46,16.10
2017,10,27,15,47,16.10
2017,10,27,15,48,16.10
2017,10,27,15,49,16.10
2017,10,27,15,50,16.00
2017,10,27,15,51,16.00
2017,10,27,15,52,16.00
2017,10,27,15,53,15.90
2017,10,27,15,54,15.80
2017,10,27,15,55,15.80
2017,10,27,15,56,15.70
2017,10,27,15,57,15.70
2017,10,27,15,58,15.60
2017,10,27,15,59,15.60
2017,10,27,16,00,15.50
2017,10,27,16,01,15.50
2017,10,27,16,02,15.50
2017,10,27,16,03,15.40
2017,10,27,16,04,15.40
2017,10,27,16,05,15.40
2017,10,27,16,06,15.40
2017,10,27,16,07,15.30
2017,10,27,16,08,15.40
2017,10,27,16,09,15.40
2017,10,27,16,10,15.40
2017,10,27,16,11,15.30
2017,10,27,16,12,15.30
2017,10,27,16,13,15.30
2017,10,27,16,14,15.30
2017,10,27,16,15,15.30
2017,10,27,16,16,15.30
2017,10,27,16,17,15.20
2017,10,27,16,18,15.20
2017,10,27,16,19,15.20
2017,10,27,16,20,15.10
2017,10,27,16,21,15.10
2017,10,27,16,22,15.10
2017,10,27,16,23,15.10
2017,10,27,16,24,15.10
2017,10,27,16,25,15.10
2017,10,27,16,26,15.10
2017,10,27,16,27,15.10
2017,10,27,16,28,15.10
2017,10,27,16,29,15.10
2017,10,27,16,30,15.20
2017,10,27,16,31,15.20
2017,10,27,16,32,15.20
2017,10,27,16,33,15.20
2017,10,27,16,34,15.30
2017,10,27,16,35,15.30
2017,10,27,16,36,15.30
2017,10,27,16,37,15.30
2017,10,27,16,38,15.30
2017,10,27,16,39,15.30
2017,10,27,16,40,15.30
2017,10,27,16,41,15.30
2017,10,27,16,42,15.30
2017,10,27,16,43,15.40
2017,10,27,16,44,15.40
2017,10,27,16,45,15.40
2017,10,27,16,46,15.40
2017,10,27,16,47,15.40
2017,10,27,16,48,15.40
2017,10,27,16,49,15.40
2017,10,27,16,50,15.40
2017,10,27,16,51,15.40
2017,10,27,16,52,15.50
2017,10,27,16,53,15.50
2017,10,27,16,54,15.50
2017,10,27,16,55,15.50
2017,10,27,16,56,15.50
2017,10,27,16,57,15.50
2017,10,27,16,58,15.50
2017,10,27,16,59,15.50
2017,10,27,17,00,15.40
2017,10,27,17,01,15.40
2017,10,27,17,02,15.40
2017,10,27,17,03,15.40
2017,10,27,17,04,15.40
2017,10,27,17,05,15.40
2017,10,27,17,06,15.40
2017,10,27,17,07,15.40
2017,10,27,17,08,15.40
2017,10,27,17,09,15.40
2017,10,27,17,10,15.40
2017,10,27,17,11,15.40
2017,10,27,17,12,15.40
2017,10,27,17,13,15.40
2017,10,27,17,14,15.40
2017,10,27,17,15,15.40
2017,10,27,17,16,15.40
2017,10,27,17,17,15.40
2017,10,27,17,18,15.40
2017,10,27,17,19,15.40
2017,10,27,17,20,15.30
2017,10,27,17,21,15.30
2017,10,27,17,22,15.30
2017,10,27,17,23,15.30
2017,10,27,17,24,15.30
2017,10,27,17,25,15.30
2017,10,27,17,26,15.30
2017,10,27,17,27,15.20
2017,10,27,17,28,15.20
2017,10,27,17,29,15.20
2017,10,27,17,30,15.20
2017,10,27,17,31,15.20
2017,10,27,17,32,15.20
2017,10,27,17,33,15.20
2017,10,27,17,34,15.20
2017,10,27,17,35,15.20
2017,10,27,17,36,15.20
2017,10,27,17,37,15.20
2017,10,27,17,38,15.10
2017,10,27,17,39,15.10
2017,10,27,17,40,15.10
2017,10,27,17,41,15.10
2017,10,27,17,42,15.10
2017,10,27,17,43,15.10
2017,10,27,17,44,15.10
2017,10,27,17,45,15.10
2017,10,27,17,46,15.10
2017,10,27,17,47,15.10
2017,10,27,17,48,15.10